Showing default

WORLDVIEW 3, 40115

Orbit data source: Space-Track

WORLDVIEW 3, 40115 is a payload satellite owned by DigitalGlobe (US) in SSO that was launched on Wed, 13 Aug 2014 UTC via an ATLAS V 401 launch vehicle from the Air Force Western Test Range (AFWTR). Payload-class satellites include a variety of spacecraft equipped with specific instruments for various scientific and technological missions. These include communications satellites like Starlink; space stations such as the ISS; scientific satellites like the Hubble; Earth observation satellites from companies like Planet Labs, Umbra, and HawkEye 360; GPS; miniature CubeSats for education and research; and military/defense satellites.

Loading next visibility...
Identifier
40115, 2014-048A
Orbit
SSO
Country
Flag of USUS
Related business
Manufacturer
Ball
Mission
Operational Commercial Imaging
Bus & Motor
BCP-5000, Unknown motor
Mass
2,615 kg wet, ~2,200 kg dry
Launch date (UTC)
2014-08-13 (12 years ago)
Launch vehicle
ATLAS V 401
Launch site
Air Force Western Test Range (AFWTR)
Object type
Payload
Rocket body
Debris
Shape & HBR
Hex Cyl + 2 Pan, 4.4 m
Radar Cross Section
13.188 m², Large (>1 m²)

Expand to show TLE details & history
Last TLE update: 9 hours ago

TLE from 9 hours ago
0 WORLDVIEW 3
1 40115U 14048A   26061.76705237  .00001220  00000-0  15003-3 0  9997
2 40115  97.8647 138.0513 0000666  16.0558 344.0677 14.84815513626115
Epoch: 2026-03-02T18:24Z
TLE epoch observation values (Epoch: 2026-03-02T18:24:33.324Z)
Latitude
-0.00011°
Longitude
61.35672°
Altitude
616.746 km
Speed
7.551 km/s
True Right ascension
09h 12m 12s
True Declination
0° 00' 00"
Sunlit
Object was in full shadow at epoch
Visualization orbit readout
Latitude
Unknown
Longitude
Unknown
Altitude
Unknown
Speed
Unknown
Apparent Right ascension
Unknown
Apparent Declination
Unknown
Sunlit
N/A
Visualization observer readout
Local Sidereal Time
06:57:00
Azimuth
Unknown
Elevation
Unknown
Doppler factor
Unknown
Orbital elements
Apogee altitude
611.663 km
Perigee altitude
610.732 km
Semi-major axis
6,989.335 km
Eccentricity
0.00007
Inclination
97.8647°
RAAN
138.0513°
Arg. of periapsis
16.0558°
True anomaly
344.0656°
Mean anomaly
344.0677°
Eccentric anomaly
344.06665°
Mean motion
3.71441 °/min
Orbital period
96.92 mins
BSTAR
0.00015003
Loading maneuver chart data...
Computing Atmospheric mass density...
Loading historical data...
Loading historical data...
Loading historical data...
Loading historical data...
Loading historical data...
Loading historical data...
Loading historical data...
Other satellites on launch #48 in the year 2014 (2014-08-13 UTC)

Documentation

Showing up to 5 results
|